Theta_e
302 297 294 298 299 299 299 299 315 320 323 319 317 319 322 327 329 330 331 321 328 330 336 338 340 344 344 343 339 342 342 340 344 344 341 339 335 338 339 341 347 349 348 351
297 294 300 303 302 300 299 307 313 319 324 321 316 318 323 326 327 329 330 321 327 329 333 337 340 342 341 340 339 341 342 339 342 343 343 343 342 342 342 343 347 348 349 348
296 299 304 302 300 299 294 297 312 313 318 322 319 315 319 324 328 330 333 323 329 329 331 335 338 340 340 338 340 341 342 339 340 345 344 342 343 343 342 342 344 348 350 349
298 304 303 299 299 299 290 300 314 315 310 304 317 301 312 321 324 328 328 323 327 329 331 334 337 338 337 339 342 342 342 339 341 345 342 341 339 338 341 341 343 347 351 350
297 299 300 298 300 301 298 303 311 315 309 308 312 303 304 320 319 323 327 324 326 330 331 332 336 337 337 342 342 344 342 340 343 343 342 339 336 337 341 343 342 345 348 349
300 303 301 300 303 303 306 311 310 307 304 297 308 305 305 312 318 322 327 327 326 330 331 333 337 338 337 344 342 344 342 340 345 346 342 339 337 339 343 343 342 344 346 348
298 300 302 303 296 299 299 300 293 294 295 295 303 304 304 317 322 325 326 327 328 329 331 332 334 336 337 342 342 342 341 338 341 345 346 342 340 340 342 342 342 342 343 344
290 290 299 301 299 295 295 297 290 288 291 294 304 298 305 319 324 327 331 331 333 333 332 332 334 336 337 341 343 342 340 337 340 343 345 345 342 341 342 343 341 341 344 345
289 292 303 303 302 301 295 293 297 292 291 296 300 304 313 320 319 325 327 330 332 332 334 334 335 336 340 341 340 345 343 339 341 343 344 345 343 341 340 343 342 340 343 346
293 290 297 303 302 304 297 300 294 291 287 287 297 298 302 314 318 319 324 325 328 332 334 335 338 338 339 341 341 341 344 341 342 344 345 346 347 344 342 342 341 343 343 346
295 293 295 298 294 296 299 297 294 293 291 291 292 298 318 318 324 324 325 326 328 331 332 334 337 338 338 340 340 339 337 343 342 344 345 346 347 347 345 343 342 342 345 345
297 291 289 293 299 300 298 297 295 291 291 294 296 301 322 323 325 325 325 327 328 327 328 331 334 338 338 337 338 338 339 340 341 343 343 343 344 344 345 345 346 350 345 346
296 291 289 291 293 298 294 294 292 293 295 293 294 301 322 323 322 325 325 326 328 330 332 331 331 333 334 335 335 334 337 339 341 342 339 338 341 341 342 344 346 347 346 343
303 290 290 288 290 293 291 295 294 291 290 294 298 309 316 318 317 319 321 324 325 325 326 328 329 331 334 333 333 334 338 340 341 341 338 338 339 339 338 340 343 347 348 344
297 292 292 295 296 296 295 297 296 291 295 294 306 309 315 318 318 316 318 320 320 320 320 322 323 327 329 331 333 334 335 340 341 339 337 339 339 341 341 340 339 342 345 348
297 291 293 294 299 296 294 296 303 305 308 306 310 310 319 319 314 313 314 313 313 314 315 316 319 322 324 326 327 328 328 332 340 339 339 341 343 341 339 339 339 339 342 343
296 293 291 289 294 295 290 294 296 306 308 311 307 312 315 312 312 311 312 312 311 312 312 313 315 316 318 322 324 323 324 328 329 329 329 331 340 340 341 341 338 338 342 343
292 293 291 288 292 285 293 301 311 308 309 310 311 313 312 311 310 310 311 308 309 309 309 310 312 314 316 319 319 320 320 320 321 322 324 327 328 331 334 335 337 339 341 339
293 291 287 285 287 293 298 297 297 300 306 313 311 312 310 309 309 307 309 308 305 307 308 308 309 310 312 311 312 312 312 314 315 315 317 320 323 325 326 325 328 328 330 335
293 291 289 287 284 284 297 303 304 308 300 310 310 308 307 308 300 301 307 308 307 309 310 310 310 310 308 307 309 309 308 309 309 312 314 316 318 320 321 322 324 326 326 327
287 287 285 286 284 290 298 302 305 292 293 309 309 308 307 304 304 304 307 307 307 308 307 307 307 305 305 306 307 305 305 305 307 309 311 313 314 316 317 317 319 318 319 318
288 284 285 285 284 285 301 300 295 298 301 309 308 308 304 305 306 305 308 307 307 305 305 305 303 303 303 304 305 303 303 305 305 306 307 308 309 311 312 314 313 316 314 314
287 291 289 290 289 297 299 297 298 299 301 305 306 305 305 304 303 303 302 303 304 305 304 304 302 301 301 302 302 300 301 303 303 303 302 303 305 306 308 308 308 310 310 310
292 295 292 293 296 297 299 300 300 301 301 305 307 306 306 304 303 302 301 301 301 301 301 300 299 299 298 299 301 300 300 300 299 299 299 300 300 302 304 306 307 306 305 305
293 293 291 291 296 298 299 299 300 300 302 304 307 307 306 304 302 301 300 300 300 299 298 298 297 297 296 298 299 300 299 299 297 297 297 297 298 298 299 300 302 304 303 302
294 292 289 289 295 295 297 299 302 300 300 301 302 301 303 302 300 301 300 300 299 298 297 296 296 296 296 297 297 298 298 297 295 295 295 296 296 296 297 297 298 302 302 301
Wind_Speed
4 4 7 8 5 5 4 2 9 6 8 7 5 6 10 15 8 7 4 8 17 17 13 15 15 13 10 7 7 8 8 6 5 2 4 2 2 1 1 1 1 3 4 3
5 6 8 6 7 5 3 4 6 9 7 8 10 9 8 14 9 6 6 7 15 14 14 15 13 13 12 13 10 8 8 8 5 4 1 3 2 1 1 2 2 1 1 2
6 4 5 4 3 5 3 5 7 9 8 5 9 2 8 10 9 9 9 7 16 16 17 15 15 16 12 13 12 12 9 9 6 6 4 3 3 2 2 0 1 3 3 3
4 6 4 3 4 6 2 8 9 15 10 6 7 4 5 12 12 11 10 11 16 17 15 17 16 15 13 13 11 11 9 8 6 7 5 6 5 4 3 3 2 3 4 4
6 5 6 5 8 7 10 6 14 13 4 5 4 3 3 10 11 10 12 13 17 21 21 20 19 18 14 13 13 12 10 8 7 7 7 5 4 2 2 2 3 3 3 4
7 3 5 8 4 10 2 9 11 6 4 2 8 6 5 13 18 24 19 14 18 20 21 19 17 17 14 11 11 11 10 8 8 7 7 8 8 6 4 3 3 2 2 3
7 5 6 6 3 1 4 8 3 4 1 7 5 2 4 12 18 26 24 12 14 15 15 14 12 14 14 14 11 10 9 7 7 8 7 7 7 7 7 5 4 4 2 2
4 3 7 3 10 9 8 10 8 7 6 3 5 5 3 8 11 6 14 10 10 12 14 14 16 13 12 13 12 12 10 7 7 7 7 6 6 4 4 5 4 4 4 3
3 5 4 5 5 11 4 4 7 8 2 5 3 1 4 9 10 10 14 13 9 10 13 12 7 7 4 7 7 4 4 1 4 6 5 6 6 6 5 5 4 3 3 3
3 2 1 5 4 4 7 7 4 3 5 3 3 1 2 3 6 6 11 11 10 9 10 13 10 13 7 8 8 10 5 4 4 3 3 3 5 6 4 4 5 5 4 4
3 3 6 1 3 7 3 2 7 6 4 6 4 4 4 3 8 11 10 11 11 9 8 9 11 7 5 9 10 9 9 8 1 3 3 2 3 3 3 4 5 6 4 5
2 5 2 4 4 4 1 5 5 7 3 4 4 3 4 9 9 11 11 11 10 8 6 7 5 4 3 5 6 6 6 8 5 5 3 1 2 1 3 4 5 5 6 5
2 4 2 7 7 7 7 5 4 6 4 4 7 4 4 10 11 11 13 11 9 7 9 7 4 4 4 3 4 3 5 4 2 4 5 5 5 5 4 3 4 4 5 5
5 3 4 5 5 2 3 4 3 5 4 6 3 10 8 10 14 12 14 13 11 8 9 9 6 6 6 4 3 1 4 2 4 1 3 1 2 5 5 5 5 5 3 4
5 4 1 2 3 3 1 3 3 4 4 5 15 17 15 13 11 8 10 19 14 10 8 6 7 7 9 8 7 5 5 4 7 6 7 1 4 3 3 4 5 6 7 5
4 2 0 6 6 6 4 8 9 5 6 7 18 13 6 13 11 11 13 14 14 11 10 8 7 8 10 9 8 9 8 6 4 4 3 3 6 4 4 2 3 4 5 6
4 3 3 1 5 5 8 9 6 4 2 22 17 11 15 15 14 15 14 15 13 11 10 9 8 6 8 10 10 12 10 9 9 9 9 9 4 1 2 2 3 2 4 4
3 4 3 1 4 4 5 7 9 12 3 5 16 18 16 16 9 8 7 13 14 13 10 7 7 9 8 9 11 10 10 10 10 11 10 9 8 7 6 5 5 6 4 3
5 4 4 4 2 1 7 8 5 3 7 7 23 17 16 18 18 8 6 9 7 9 9 9 6 6 8 9 6 10 10 9 11 11 9 8 8 7 7 6 5 4 5 3
6 7 5 2 3 4 7 8 4 5 4 4 15 17 22 19 10 7 7 10 10 12 8 9 10 9 9 6 6 11 9 10 10 8 6 6 7 6 6 5 5 4 4 3
5 5 3 1 1 3 3 7 9 5 9 12 13 20 17 10 5 9 9 10 10 11 10 9 9 9 6 6 7 9 7 9 5 6 6 7 8 7 7 5 4 4 4 3
3 3 1 1 3 2 5 6 6 3 4 13 14 19 9 13 16 13 12 12 12 12 9 8 9 7 6 6 8 7 8 6 6 6 7 7 7 6 7 7 7 7 7 8
2 5 5 5 6 5 4 2 3 2 3 5 12 7 15 20 16 14 11 12 11 11 9 7 8 8 6 6 6 7 4 5 6 7 7 6 6 7 7 7 7 7 7 7
2 3 4 4 4 3 4 4 5 5 9 9 12 14 16 18 16 13 10 10 9 7 8 6 7 7 6 5 6 5 5 6 6 6 7 6 6 6 6 5 5 5 6 6
4 3 3 1 3 3 2 2 5 5 8 13 9 12 13 14 12 11 9 9 8 8 5 6 7 6 4 4 5 5 5 5 5 5 5 6 5 6 6 5 4 4 3 3
0 4 4 6 4 3 6 3 3 7 7 8 10 7 6 12 11 11 10 8 9 8 6 6 7 7 6 5 4 3 2 5 5 6 5 4 4 4 4 4 5 6 3 8
Wind_Direction
193 128 199 192 176 132 103 1 79 65 82 86 257 285 188 187 203 207 233 142 167 169 169 165 169 163 151 154 150 153 145 164 141 127 130 131 166 176 171 260 231 149 180 190
44 213 220 171 166 126 124 100 88 79 127 73 265 252 172 199 225 228 212 152 161 159 161 166 168 167 171 164 171 163 164 166 176 127 130 142 150 177 172 165 189 254 219 198
156 245 169 146 135 127 138 159 175 141 146 142 169 309 199 223 234 235 249 168 165 161 162 167 172 179 170 170 178 182 175 173 167 140 118 78 75 81 82 232 204 216 183 206
222 233 147 161 230 136 203 191 154 151 164 176 164 218 222 181 212 237 225 177 167 168 163 170 179 179 181 182 178 180 169 165 155 166 145 164 169 163 204 176 183 194 196 200
246 180 189 188 213 151 223 154 179 159 94 99 175 117 229 162 199 226 226 188 177 178 170 176 181 181 182 175 177 181 168 160 156 163 161 153 151 175 206 173 182 193 187 197
222 220 171 208 216 181 141 83 58 65 99 327 188 187 194 179 184 198 223 193 180 183 181 178 179 173 176 173 175 174 177 173 163 162 164 170 172 175 174 181 187 202 190 205
331 260 234 163 253 251 127 93 51 48 33 221 163 154 217 201 195 201 198 173 174 181 170 162 172 180 171 174 174 173 182 181 177 168 169 177 179 183 189 184 178 168 181 205
184 308 167 182 184 190 186 152 151 156 187 236 97 224 294 267 214 136 173 127 117 122 147 157 195 191 177 181 175 180 179 186 173 188 184 170 174 191 202 189 180 184 186 202
169 269 292 186 161 143 194 146 185 105 15 99 198 26 19 40 76 119 126 132 121 124 122 113 103 348 114 121 125 157 160 278 177 198 191 180 169 196 206 201 188 183 185 213
228 260 273 277 130 44 152 161 76 13 139 147 330 76 248 49 108 95 99 121 119 116 122 114 127 174 130 114 104 81 105 195 192 200 227 208 198 193 194 179 216 222 230 215
110 141 288 2 48 170 45 65 60 110 105 144 141 282 336 159 123 120 110 115 128 117 118 127 130 132 138 128 123 101 80 48 14 230 207 195 255 241 213 211 211 219 211 204
334 129 200 232 285 264 56 148 126 120 200 78 116 260 40 87 93 108 119 124 110 108 106 106 109 124 136 93 66 97 90 90 45 30 352 8 48 327 258 258 245 231 243 207
19 16 43 1 359 5 49 347 96 106 87 170 122 238 123 99 88 94 106 112 107 122 131 117 129 121 134 105 135 219 100 96 142 85 71 29 64 71 34 313 290 275 254 245
83 69 122 147 219 223 13 328 118 105 109 152 173 142 159 131 122 107 101 93 90 91 97 103 114 107 102 133 128 222 101 175 183 95 346 243 71 81 65 22 11 30 297 248
88 99 54 43 336 154 126 323 184 142 155 141 162 156 163 149 127 124 129 117 109 100 86 73 88 93 94 90 84 73 55 72 170 176 230 303 255 169 93 19 350 7 8 310
354 132 109 352 16 19 34 21 37 46 114 65 149 146 151 127 127 125 112 105 107 108 104 86 71 71 81 86 83 68 56 44 121 102 51 319 283 19 47 357 309 316 350 351
45 80 55 153 318 37 354 356 342 43 293 142 162 167 143 144 138 133 130 119 115 115 96 87 77 68 64 63 62 61 55 60 56 59 45 21 16 46 315 253 237 304 337 332
86 79 31 212 24 63 263 16 74 79 27 130 113 140 139 129 102 81 106 122 125 117 106 87 68 63 52 66 69 70 60 58 54 48 41 21 19 32 24 29 21 28 8 320
44 106 75 108 99 223 350 350 347 25 31 134 130 129 117 118 105 82 92 95 91 104 110 101 81 72 67 52 43 69 57 58 50 39 30 23 24 26 19 14 33 26 7 331
40 62 102 64 103 195 236 268 10 98 65 348 131 133 138 140 135 168 141 125 107 110 97 88 94 76 65 31 49 66 52 47 38 18 8 12 22 31 22 0 8 4 290 318
2 3 104 100 120 296 204 292 323 279 223 163 164 151 156 158 142 134 128 108 107 109 99 88 76 80 69 53 58 53 48 40 6 15 14 19 17 18 16 4 359 343 358 355
134 112 249 58 88 237 22 335 177 235 349 163 170 157 133 130 125 134 133 130 119 110 96 86 86 79 62 54 71 57 44 2 25 32 36 24 16 17 8 19 19 19 21 28
26 174 178 152 216 256 289 256 299 202 161 162 153 135 139 141 140 143 134 127 130 126 117 110 106 94 67 69 78 75 25 22 21 37 35 29 15 14 10 21 18 20 19 30
310 147 101 73 295 323 17 9 23 65 92 89 118 132 143 141 144 142 135 132 126 119 119 118 101 87 69 49 67 80 49 41 46 38 24 19 29 15 19 21 21 30 32 11
215 33 124 333 324 326 14 127 124 80 100 107 114 135 144 138 140 140 137 134 132 129 122 124 120 117 116 98 73 54 41 48 45 41 24 19 24 18 8 12 8 18 13 360
287 174 145 209 215 191 247 289 256 141 137 134 126 117 134 142 140 142 143 145 146 146 138 132 137 132 148 134 122 114 79 67 50 42 25 16 21 12 13 358 353 347 332 346